| time (UTC) | temp F | wind direction | speed MPH | gust MPH | rain 1hr in | rain 24hr in | rain mn in | humidity % | barometer mb |
| 20260509011209 | 32 | 148 | 0.0 | 0.0 | 0.00 | 0.00 | 0.00 | 77 | 1028.6 |
| 20260509010709 | 32 | 148 | 0.0 | 0.0 | 0.00 | 0.00 | 0.00 | 76 | 1028.6 |
| 20260509010213 | 32 | 148 | 0.0 | 0.0 | 0.00 | 0.00 | 0.00 | 76 | 1028.6 |
| 20260509005709 | 32 | 148 | 0.0 | 0.0 | 0.00 | 0.00 | 0.00 | 76 | 1028.6 |
| 20260509005208 | 32 | 148 | 0.0 | 0.0 | 0.00 | 0.00 | 0.00 | 75 | 1028.7 |
| 20260509004707 | 33 | 148 | 0.0 | 0.0 | 0.00 | 0.00 | 0.00 | 75 | 1028.5 |
| 20260509003708 | 33 | 148 | 0.0 | 0.0 | 0.00 | 0.00 | 0.00 | 75 | 1028.5 |
| 20260509003207 | 33 | 148 | 0.0 | 0.0 | 0.00 | 0.00 | 0.00 | 75 | 1028.4 |
| 20260509002709 | 33 | 148 | 0.0 | 0.0 | 0.00 | 0.00 | 0.00 | 74 | 1028.4 |
| 20260509002209 | 33 | 148 | 0.0 | 0.0 | 0.00 | 0.00 | 0.00 | 74 | 1028.4 |
| 20260509001709 | 33 | 148 | 0.0 | 0.0 | 0.00 | 0.00 | 0.00 | 74 | 1028.4 |
| 20260509001209 | 33 | 148 | 0.0 | 0.0 | 0.00 | 0.00 | 0.00 | 74 | 1028.3 |
| 20260509000712 | 33 | 148 | 0.0 | 0.0 | 0.00 | 0.00 | 0.00 | 74 | 1028.2 |
| 20260509000211 | 33 | 148 | 0.0 | 1.0 | 0.00 | 0.00 | 0.00 | 74 | 1028.4 |
| 20260508235710 | 33 | 148 | 0.0 | 1.0 | 0.00 | 0.00 | 0.00 | 74 | 1028.3 |
| 20260508235214 | 33 | 148 | 0.0 | 1.0 | 0.00 | 0.00 | 0.00 | 73 | 1028.4 |
| 20260508234713 | 34 | 148 | 0.0 | 1.0 | 0.00 | 0.00 | 0.00 | 73 | 1028.5 |
| 20260508234225 | 34 | 148 | 0.0 | 0.0 | 0.00 | 0.00 | 0.00 | 72 | 1028.3 |
| 20260508233715 | 34 | 148 | 0.0 | 0.0 | 0.00 | 0.00 | 0.00 | 72 | 1028.2 |
| 20260508233210 | 35 | 148 | 0.0 | 0.0 | 0.00 | 0.00 | 0.00 | 72 | 1028.2 |
| 20260508232712 | 35 | 148 | 0.0 | 1.0 | 0.00 | 0.00 | 0.00 | 72 | 1028.2 |
| 20260508232234 | 35 | 148 | 0.0 | 1.0 | 0.00 | 0.00 | 0.00 | 72 | 1028.2 |
| 20260508231705 | 35 | 148 | 0.0 | 0.0 | 0.00 | 0.00 | 0.00 | 72 | 1028.1 |
| 20260508230705 | 35 | 148 | 0.0 | 0.0 | 0.00 | 0.00 | 0.00 | 71 | 1028.1 |
| 20260508230208 | 35 | 148 | 0.0 | 0.0 | 0.00 | 0.00 | 0.00 | 72 | 1028.0 |
| 20260508225702 | 35 | 148 | 0.0 | 0.0 | 0.00 | 0.00 | 0.00 | 72 | 1028.0 |
| 20260508225204 | 35 | 148 | 0.0 | 0.0 | 0.00 | 0.00 | 0.00 | 71 | 1028.0 |
| 20260508224704 | 35 | 148 | 0.0 | 0.0 | 0.00 | 0.00 | 0.00 | 71 | 1028.0 |
| 20260508224205 | 35 | 148 | 0.0 | 0.0 | 0.00 | 0.00 | 0.00 | 71 | 1028.0 |
| 20260508223203 | 36 | 148 | 0.0 | 0.0 | 0.00 | 0.00 | 0.00 | 71 | 1028.1 |
| 20260508222704 | 36 | 148 | 0.0 | 0.0 | 0.00 | 0.00 | 0.00 | 70 | 1028.1 |
| 20260508222205 | 36 | 148 | 0.0 | 0.0 | 0.00 | 0.00 | 0.00 | 70 | 1028.0 |
| 20260508221701 | 36 | 148 | 0.0 | 0.0 | 0.00 | 0.00 | 0.00 | 69 | 1028.1 |
| 20260508221204 | 37 | 148 | 0.0 | 0.0 | 0.00 | 0.00 | 0.00 | 69 | 1028.1 |
| 20260508220659 | 37 | 148 | 0.0 | 0.0 | 0.00 | 0.00 | 0.00 | 68 | 1028.1 |
| 20260508220158 | 37 | 148 | 0.0 | 0.0 | 0.00 | 0.00 | 0.00 | 68 | 1028.1 |
| 20260508215655 | 37 | 148 | 0.0 | 1.0 | 0.00 | 0.00 | 0.00 | 68 | 1028.0 |
| 20260508214632 | 38 | 148 | 1.0 | 1.0 | 0.00 | 0.00 | 0.00 | 68 | 1028.0 |
| 20260508214129 | 38 | 148 | 0.0 | 1.0 | 0.00 | 0.00 | 0.00 | 68 | 1028.1 |
| 20260508213622 | 38 | 148 | 1.0 | 1.0 | 0.00 | 0.00 | 0.00 | 67 | 1028.0 |
| 20260508213117 | 38 | 148 | 0.0 | 1.0 | 0.00 | 0.00 | 0.00 | 67 | 1028.0 |
| 20260508212610 | 38 | 148 | 0.0 | 2.0 | 0.00 | 0.00 | 0.00 | 67 | 1028.0 |
| 20260508212113 | 38 | 158 | 1.0 | 2.0 | 0.00 | 0.00 | 0.00 | 67 | 1028.0 |
| 20260508210614 | 39 | 176 | 0.0 | 0.0 | 0.00 | 0.00 | 0.00 | 65 | 1027.9 |
| 20260508205612 | 39 | 176 | 0.0 | 0.0 | 0.00 | 0.00 | 0.00 | 66 | 1027.8 |
| 20260508205109 | 39 | 176 | 0.0 | 0.0 | 0.00 | 0.00 | 0.00 | 65 | 1027.8 |
| 20260508204609 | 40 | 176 | 0.0 | 0.0 | 0.00 | 0.00 | 0.00 | 64 | 1027.7 |
| 20260508204108 | 40 | 176 | 0.0 | 0.0 | 0.00 | 0.00 | 0.00 | 64 | 1027.7 |
| 20260508203609 | 40 | 176 | 0.0 | 0.0 | 0.00 | 0.00 | 0.00 | 63 | 1027.7 |
| 20260508203108 | 40 | 176 | 0.0 | 0.0 | 0.00 | 0.00 | 0.00 | 63 | 1027.6 |
| 20260508202608 | 41 | 176 | 0.0 | 0.0 | 0.00 | 0.00 | 0.00 | 62 | 1027.7 |
| 20260508202109 | 41 | 176 | 0.0 | 0.0 | 0.00 | 0.00 | 0.00 | 61 | 1027.7 |
| 20260508201622 | 41 | 176 | 0.0 | 0.0 | 0.00 | 0.00 | 0.00 | 61 | 1027.5 |
| 20260508201108 | 41 | 176 | 0.0 | 0.0 | 0.00 | 0.00 | 0.00 | 61 | 1027.6 |
| 20260508200610 | 42 | 176 | 0.0 | 0.0 | 0.00 | 0.00 | 0.00 | 60 | 1027.6 |
| 20260508200108 | 42 | 176 | 0.0 | 0.0 | 0.00 | 0.00 | 0.00 | 58 | 1027.5 |
| 20260508195109 | 43 | 176 | 0.0 | 0.0 | 0.00 | 0.00 | 0.00 | 59 | 1027.5 |
| 20260508194610 | 44 | 176 | 0.0 | 0.0 | 0.00 | 0.00 | 0.00 | 56 | 1027.3 |
| 20260508194108 | 44 | 176 | 0.0 | 0.0 | 0.00 | 0.00 | 0.00 | 56 | 1027.3 |
| 20260508193111 | 45 | 176 | 0.0 | 0.0 | 0.00 | 0.00 | 0.00 | 54 | 1027.1 |
| 20260508192110 | 46 | 176 | 0.0 | 0.0 | 0.00 | 0.00 | 0.00 | 54 | 1027.1 |
| 20260508191608 | 46 | 176 | 0.0 | 0.0 | 0.00 | 0.00 | 0.00 | 53 | 1027.1 |
| 20260508191108 | 46 | 176 | 0.0 | 0.0 | 0.00 | 0.00 | 0.00 | 53 | 1027.0 |
| 20260508190610 | 46 | 176 | 0.0 | 0.0 | 0.00 | 0.00 | 0.00 | 53 | 1027.0 |
| 20260508190107 | 46 | 176 | 0.0 | 0.0 | 0.00 | 0.00 | 0.00 | 52 | 1027.1 |
| 20260508185608 | 46 | 176 | 0.0 | 0.0 | 0.00 | 0.00 | 0.00 | 53 | 1027.1 |
| 20260508185107 | 47 | 176 | 0.0 | 0.0 | 0.00 | 0.00 | 0.00 | 52 | 1027.1 |
| 20260508184607 | 47 | 176 | 0.0 | 1.0 | 0.00 | 0.00 | 0.00 | 51 | 1027.1 |
| 20260508184109 | 47 | 176 | 0.0 | 1.0 | 0.00 | 0.00 | 0.00 | 50 | 1027.2 |
| 20260508183607 | 47 | 176 | 0.0 | 0.0 | 0.00 | 0.00 | 0.00 | 49 | 1027.2 |
| 20260508183112 | 48 | 176 | 0.0 | 0.0 | 0.00 | 0.00 | 0.00 | 49 | 1027.2 |
| 20260508182609 | 48 | 176 | 0.0 | 0.0 | 0.00 | 0.00 | 0.00 | 48 | 1027.1 |
| 20260508181608 | 49 | 176 | 0.0 | 0.0 | 0.00 | 0.00 | 0.00 | 47 | 1027.0 |
| 20260508180611 | 49 | 176 | 0.0 | 1.0 | 0.00 | 0.00 | 0.00 | 46 | 1026.9 |
| 20260508175609 | 50 | 138 | 0.0 | 1.0 | 0.00 | 0.00 | 0.00 | 45 | 1026.9 |
| 20260508175109 | 50 | 138 | 0.0 | 1.0 | 0.00 | 0.00 | 0.00 | 44 | 1026.8 |
| 20260508174614 | 51 | 138 | 0.0 | 2.0 | 0.00 | 0.00 | 0.00 | 44 | 1026.8 |
| 20260508174112 | 51 | 138 | 0.0 | 3.0 | 0.00 | 0.00 | 0.00 | 46 | 1026.7 |
| 20260508173612 | 51 | 144 | 1.0 | 3.0 | 0.00 | 0.00 | 0.00 | 43 | 1026.8 |
| 20260508173108 | 52 | 162 | 1.0 | 3.0 | 0.00 | 0.00 | 0.00 | 42 | 1026.6 |
| 20260508172612 | 52 | 172 | 0.0 | 1.0 | 0.00 | 0.00 | 0.00 | 43 | 1026.6 |
| 20260508172110 | 52 | 173 | 0.0 | 3.0 | 0.00 | 0.00 | 0.00 | 41 | 1026.5 |
| 20260508171602 | 53 | 173 | 0.0 | 3.0 | 0.00 | 0.00 | 0.00 | 40 | 1026.4 |
| 20260508171102 | 53 | 200 | 1.0 | 2.0 | 0.00 | 0.00 | 0.00 | 40 | 1026.4 |
| 20260508170601 | 53 | 38 | 0.0 | 3.0 | 0.00 | 0.00 | 0.00 | 42 | 1026.3 |
| 20260508170107 | 53 | 44 | 1.0 | 3.0 | 0.00 | 0.00 | 0.00 | 39 | 1026.3 |
| 20260508165536 | 54 | 188 | 1.0 | 9.0 | 0.00 | 0.00 | 0.00 | 38 | 1026.3 |
| 20260508164534 | 54 | 193 | 1.0 | 5.0 | 0.00 | 0.00 | 0.00 | 37 | 1026.1 |
| 20260508163534 | 55 | 140 | 2.0 | 7.0 | 0.00 | 0.00 | 0.00 | 36 | 1026.1 |
| 20260508163034 | 56 | 180 | 3.0 | 7.0 | 0.00 | 0.00 | 0.00 | 36 | 1026.0 |
| 20260508162029 | 58 | 78 | 2.0 | 3.0 | 0.00 | 0.00 | 0.00 | 25 | 1025.8 |
| 20260508161510 | 58 | 345 | 2.0 | 3.0 | 0.00 | 0.00 | 0.00 | 24 | 1025.7 |
| 20260508160510 | 58 | 59 | 2.0 | 4.0 | 0.00 | 0.00 | 0.00 | 23 | 1025.6 |
| 20260508160011 | 58 | 44 | 1.0 | 4.0 | 0.00 | 0.00 | 0.00 | 23 | 1025.6 |
| 20260508155508 | 58 | 17 | 3.0 | 4.0 | 0.00 | 0.00 | 0.00 | 23 | 1025.6 |
| 20260508154008 | 59 | 69 | 2.0 | 7.0 | 0.00 | 0.00 | 0.00 | 23 | 1025.6 |
| 20260508153507 | 59 | 316 | 3.0 | 7.0 | 0.00 | 0.00 | 0.00 | 23 | 1025.6 |
| 20260508153012 | 59 | 44 | 2.0 | 4.0 | 0.00 | 0.00 | 0.00 | 23 | 1025.6 |
| 20260508152508 | 58 | 296 | 2.0 | 3.0 | 0.00 | 0.00 | 0.00 | 24 | 1025.6 |
| 20260508152011 | 58 | 330 | 0.0 | 7.0 | 0.00 | 0.00 | 0.00 | 25 | 1025.6 |
| 20260508151522 | 59 | 296 | 2.0 | 7.0 | 0.00 | 0.00 | 0.00 | 23 | 1025.6 |
| 20260508151008 | 58 | 0 | 1.0 | 4.0 | 0.00 | 0.00 | 0.00 | 24 | 1025.6 |
| 20260508150509 | 58 | 68 | 2.0 | 12.0 | 0.00 | 0.00 | 0.00 | 24 | 1025.6 |
| 20260508145007 | 58 | 65 | 2.0 | 10.0 | 0.00 | 0.00 | 0.00 | 22 | 1025.6 |
| 20260508144510 | 58 | 55 | 6.0 | 10.0 | 0.00 | 0.00 | 0.00 | 22 | 1025.7 |
| 20260508143510 | 58 | 128 | 3.0 | 7.0 | 0.00 | 0.00 | 0.00 | 22 | 1025.6 |
| 20260508143011 | 59 | 285 | 2.0 | 7.0 | 0.00 | 0.00 | 0.00 | 21 | 1025.6 |
| 20260508142011 | 59 | 341 | 5.0 | 10.0 | 0.00 | 0.00 | 0.00 | 21 | 1025.7 |
| 20260508141510 | 59 | 354 | 2.0 | 7.0 | 0.00 | 0.00 | 0.00 | 22 | 1025.6 |
| 20260508141008 | 59 | 13 | 3.0 | 7.0 | 0.00 | 0.00 | 0.00 | 22 | 1025.8 |
| 20260508140508 | 58 | 62 | 2.0 | 10.0 | 0.00 | 0.00 | 0.00 | 22 | 1025.7 |
| 20260508140033 | 58 | 343 | 5.0 | 10.0 | 0.00 | 0.00 | 0.00 | 21 | 1025.7 |
| 20260508135009 | 58 | 55 | 3.0 | 6.0 | 0.00 | 0.00 | 0.00 | 22 | 1025.8 |
| 20260508134514 | 58 | 331 | 3.0 | 6.0 | 0.00 | 0.00 | 0.00 | 23 | 1025.8 |
| 20260508133514 | 58 | 0 | 2.0 | 11.0 | 0.00 | 0.00 | 0.00 | 22 | 1025.7 |
| 20260508133008 | 59 | 307 | 4.0 | 11.0 | 0.00 | 0.00 | 0.00 | 21 | 1025.8 |
| 20260508132509 | 58 | 7 | 3.0 | 9.0 | 0.00 | 0.00 | 0.00 | 20 | 1025.8 |
| 20260508132011 | 58 | 130 | 2.0 | 7.0 | 0.00 | 0.00 | 0.00 | 19 | 1025.9 |
| 20260508131511 | 58 | 55 | 3.0 | 7.0 | 0.00 | 0.00 | 0.00 | 20 | 1025.9 |
| 20260508131007 | 58 | 69 | 4.0 | 9.0 | 0.00 | 0.00 | 0.00 | 21 | 1025.8 |
| 20260508130508 | 58 | 159 | 2.0 | 9.0 | 0.00 | 0.00 | 0.00 | 21 | 1025.9 |
| 20260508130012 | 58 | 186 | 2.0 | 6.0 | 0.00 | 0.00 | 0.00 | 20 | 1025.8 |
| 20260508125511 | 58 | 231 | 2.0 | 9.0 | 0.00 | 0.00 | 0.00 | 19 | 1025.9 |
| 20260508125007 | 58 | 313 | 3.0 | 9.0 | 0.00 | 0.00 | 0.00 | 19 | 1026.0 |
| 20260508124507 | 58 | 307 | 2.0 | 14.0 | 0.00 | 0.00 | 0.00 | 19 | 1026.0 |
| 20260508124012 | 59 | 37 | 6.0 | 14.0 | 0.00 | 0.00 | 0.00 | 20 | 1026.0 |
| 20260508123009 | 59 | 80 | 5.0 | 12.0 | 0.00 | 0.00 | 0.00 | 21 | 1026.1 |
| 20260508122006 | 59 | 337 | 2.0 | 5.0 | 0.00 | 0.00 | 0.00 | 22 | 1026.0 |
| 20260508121509 | 59 | 288 | 3.0 | 7.0 | 0.00 | 0.00 | 0.00 | 23 | 1026.0 |
| 20260508121006 | 59 | 80 | 5.0 | 11.0 | 0.00 | 0.00 | 0.00 | 22 | 1026.1 |
| 20260508120509 | 59 | 54 | 5.0 | 11.0 | 0.00 | 0.00 | 0.00 | 22 | 1026.1 |
| 20260508120015 | 59 | 58 | 7.0 | 13.0 | 0.00 | 0.00 | 0.00 | 22 | 1026.1 |
| 20260508115510 | 59 | 117 | 7.0 | 13.0 | 0.00 | 0.00 | 0.00 | 23 | 1026.1 |
| 20260508114510 | 59 | 306 | 3.0 | 10.0 | 0.00 | 0.00 | 0.00 | 23 | 1026.1 |
| 20260508114018 | 59 | 55 | 4.0 | 10.0 | 0.00 | 0.00 | 0.00 | 23 | 1026.2 |
| 20260508113507 | 60 | 41 | 3.0 | 10.0 | 0.00 | 0.00 | 0.00 | 24 | 1026.2 |
| 20260508113010 | 59 | 47 | 4.0 | 7.0 | 0.00 | 0.00 | 0.00 | 23 | 1026.3 |
| 20260508111509 | 60 | 357 | 3.0 | 6.0 | 0.00 | 0.00 | 0.00 | 26 | 1026.2 |
| 20260508111006 | 59 | 103 | 3.0 | 6.0 | 0.00 | 0.00 | 0.00 | 24 | 1026.1 |
| 20260508110506 | 58 | 278 | 2.0 | 6.0 | 0.00 | 0.00 | 0.00 | 24 | 1026.1 |
| 20260508110010 | 58 | 329 | 2.0 | 7.0 | 0.00 | 0.00 | 0.00 | 25 | 1026.2 |
| 20260508105511 | 58 | 305 | 2.0 | 7.0 | 0.00 | 0.00 | 0.00 | 24 | 1026.2 |
| 20260508105007 | 58 | 303 | 2.0 | 9.0 | 0.00 | 0.00 | 0.00 | 25 | 1026.2 |
| 20260508104508 | 58 | 305 | 4.0 | 9.0 | 0.00 | 0.00 | 0.00 | 24 | 1026.2 |
| 20260508104009 | 59 | 10 | 3.0 | 6.0 | 0.00 | 0.00 | 0.00 | 26 | 1026.2 |
| 20260508103511 | 60 | 56 | 3.0 | 6.0 | 0.00 | 0.00 | 0.00 | 25 | 1026.2 |
| 20260508103011 | 59 | 63 | 2.0 | 6.0 | 0.00 | 0.00 | 0.00 | 25 | 1026.2 |
| 20260508102506 | 57 | 54 | 1.0 | 7.0 | 0.00 | 0.00 | 0.00 | 26 | 1026.2 |
| 20260508102011 | 58 | 303 | 3.0 | 14.0 | 0.00 | 0.00 | 0.00 | 26 | 1026.1 |
| 20260508101508 | 58 | 45 | 7.0 | 14.0 | 0.00 | 0.00 | 0.00 | 27 | 1026.1 |
| 20260508101006 | 59 | 110 | 5.0 | 11.0 | 0.00 | 0.00 | 0.00 | 27 | 1026.1 |
| 20260508100508 | 59 | 302 | 2.0 | 9.0 | 0.00 | 0.00 | 0.00 | 27 | 1026.0 |
| 20260508095508 | 58 | 319 | 3.0 | 6.0 | 0.00 | 0.00 | 0.00 | 28 | 1026.0 |
| 20260508095011 | 57 | 7 | 1.0 | 6.0 | 0.00 | 0.00 | 0.00 | 29 | 1026.0 |
| 20260508094510 | 57 | 320 | 2.0 | 7.0 | 0.00 | 0.00 | 0.00 | 29 | 1026.1 |
| 20260508093510 | 57 | 330 | 4.0 | 10.0 | 0.00 | 0.00 | 0.00 | 30 | 1026.0 |
| 20260508093010 | 57 | 344 | 3.0 | 10.0 | 0.00 | 0.00 | 0.00 | 30 | 1026.0 |
| 20260508092510 | 57 | 203 | 3.0 | 10.0 | 0.00 | 0.00 | 0.00 | 29 | 1026.1 |
| 20260508091507 | 57 | 343 | 3.0 | 7.0 | 0.00 | 0.00 | 0.00 | 30 | 1025.9 |
| 20260508091009 | 57 | 23 | 3.0 | 6.0 | 0.00 | 0.00 | 0.00 | 29 | 1025.9 |
| 20260508090509 | 56 | 338 | 4.0 | 6.0 | 0.00 | 0.00 | 0.00 | 30 | 1026.0 |
| 20260508090016 | 56 | 331 | 3.0 | 6.0 | 0.00 | 0.00 | 0.00 | 32 | 1026.1 |
| 20260508085509 | 56 | 18 | 3.0 | 6.0 | 0.00 | 0.00 | 0.00 | 31 | 1026.1 |
| 20260508085008 | 56 | 292 | 3.0 | 6.0 | 0.00 | 0.00 | 0.00 | 31 | 1026.1 |
| 20260508084508 | 56 | 351 | 1.0 | 7.0 | 0.00 | 0.00 | 0.00 | 32 | 1026.1 |
| 20260508084009 | 55 | 321 | 4.0 | 10.0 | 0.00 | 0.00 | 0.00 | 33 | 1026.1 |
| 20260508083507 | 55 | 309 | 3.0 | 10.0 | 0.00 | 0.00 | 0.00 | 34 | 1026.2 |
| 20260508082513 | 55 | 329 | 2.0 | 10.0 | 0.00 | 0.00 | 0.00 | 35 | 1026.1 |
| 20260508082008 | 54 | 341 | 3.0 | 10.0 | 0.00 | 0.00 | 0.00 | 34 | 1026.1 |
| 20260508081507 | 54 | 326 | 5.0 | 12.0 | 0.00 | 0.00 | 0.00 | 33 | 1026.1 |
| 20260508081011 | 55 | 289 | 2.0 | 12.0 | 0.00 | 0.00 | 0.00 | 33 | 1026.1 |
| 20260508080509 | 55 | 345 | 3.0 | 7.0 | 0.00 | 0.00 | 0.00 | 35 | 1026.0 |
| 20260508080016 | 53 | 341 | 5.0 | 10.0 | 0.00 | 0.00 | 0.00 | 35 | 1026.1 |
| 20260508075507 | 54 | 358 | 6.0 | 10.0 | 0.00 | 0.00 | 0.00 | 35 | 1026.1 |
| 20260508075007 | 54 | 278 | 5.0 | 10.0 | 0.00 | 0.00 | 0.00 | 36 | 1026.0 |
| 20260508074517 | 53 | 243 | 3.0 | 10.0 | 0.00 | 0.00 | 0.00 | 36 | 1026.0 |
| 20260508073511 | 54 | 10 | 2.0 | 10.0 | 0.00 | 0.00 | 0.00 | 36 | 1025.9 |
| 20260508073011 | 53 | 11 | 3.0 | 10.0 | 0.00 | 0.00 | 0.00 | 37 | 1025.9 |
| 20260508072508 | 52 | 331 | 6.0 | 10.0 | 0.00 | 0.00 | 0.00 | 37 | 1025.9 |
| 20260508072005 | 52 | 338 | 2.0 | 7.0 | 0.00 | 0.00 | 0.00 | 39 | 1025.9 |
| 20260508071512 | 52 | 314 | 4.0 | 7.0 | 0.00 | 0.00 | 0.00 | 39 | 1025.8 |
| 20260508071010 | 53 | 324 | 4.0 | 9.0 | 0.00 | 0.00 | 0.00 | 38 | 1025.7 |
| 20260508070023 | 52 | 59 | 4.0 | 10.0 | 0.00 | 0.00 | 0.00 | 40 | 1025.7 |
| 20260508065507 | 52 | 319 | 4.0 | 10.0 | 0.00 | 0.00 | 0.00 | 41 | 1025.7 |
| 20260508065010 | 52 | 282 | 4.0 | 10.0 | 0.00 | 0.00 | 0.00 | 41 | 1025.7 |
| 20260508064507 | 51 | 320 | 2.0 | 6.0 | 0.00 | 0.00 | 0.00 | 41 | 1025.6 |
| 20260508063506 | 51 | 48 | 3.0 | 7.0 | 0.00 | 0.00 | 0.00 | 43 | 1025.5 |
| 20260508063008 | 50 | 333 | 3.0 | 7.0 | 0.00 | 0.00 | 0.00 | 44 | 1025.5 |
| 20260508062505 | 50 | 334 | 4.0 | 6.0 | 0.00 | 0.00 | 0.00 | 45 | 1025.4 |
| 20260508062008 | 49 | 92 | 2.0 | 7.0 | 0.00 | 0.00 | 0.00 | 47 | 1025.4 |
| 20260508061007 | 49 | 345 | 2.0 | 5.0 | 0.00 | 0.00 | 0.00 | 48 | 1025.2 |
| 20260508060009 | 48 | 8 | 4.0 | 9.0 | 0.00 | 0.00 | 0.00 | 48 | 1025.2 |
| 20260508055515 | 48 | 302 | 1.0 | 4.0 | 0.00 | 0.00 | 0.00 | 49 | 1025.1 |
| 20260508055016 | 48 | 313 | 1.0 | 4.0 | 0.00 | 0.00 | 0.00 | 50 | 1025.0 |
| 20260508054512 | 47 | 307 | 2.0 | 7.0 | 0.00 | 0.00 | 0.00 | 51 | 1025.0 |
| 20260508054016 | 47 | 17 | 3.0 | 7.0 | 0.00 | 0.00 | 0.00 | 52 | 1024.9 |
| 20260508053511 | 46 | 357 | 1.0 | 5.0 | 0.00 | 0.00 | 0.00 | 53 | 1024.9 |
| 20260508053011 | 46 | 341 | 2.0 | 7.0 | 0.00 | 0.00 | 0.00 | 53 | 1024.9 |
| 20260508052510 | 45 | 0 | 3.0 | 7.0 | 0.00 | 0.00 | 0.00 | 54 | 1024.8 |
| 20260508052007 | 45 | 321 | 2.0 | 6.0 | 0.00 | 0.00 | 0.00 | 55 | 1024.8 |
| 20260508051507 | 45 | 330 | 2.0 | 5.0 | 0.00 | 0.00 | 0.00 | 56 | 1024.7 |
| 20260508050511 | 44 | 319 | 3.0 | 5.0 | 0.00 | 0.00 | 0.00 | 57 | 1024.6 |
| 20260508050016 | 44 | 337 | 3.0 | 5.0 | 0.00 | 0.00 | 0.00 | 57 | 1024.6 |
| 20260508045504 | 44 | 343 | 2.0 | 5.0 | 0.00 | 0.00 | 0.00 | 58 | 1024.6 |
| 20260508045010 | 43 | 323 | 2.0 | 4.0 | 0.00 | 0.00 | 0.00 | 58 | 1024.5 |
| 20260508044503 | 43 | 331 | 2.0 | 3.0 | 0.00 | 0.00 | 0.00 | 58 | 1024.3 |
| 20260508044005 | 43 | 336 | 1.0 | 5.0 | 0.00 | 0.00 | 0.00 | 59 | 1024.3 |
| 20260508043504 | 42 | 319 | 2.0 | 5.0 | 0.00 | 0.00 | 0.00 | 59 | 1024.3 |
| 20260508043005 | 42 | 344 | 2.0 | 3.0 | 0.00 | 0.00 | 0.00 | 60 | 1024.2 |
| 20260508042520 | 42 | 111 | 1.0 | 5.0 | 0.00 | 0.00 | 0.00 | 60 | 1024.2 |
| 20260508042000 | 41 | 341 | 2.0 | 5.0 | 0.00 | 0.00 | 0.00 | 61 | 1024.2 |
| 20260508040958 | 40 | 343 | 2.0 | 4.0 | 0.00 | 0.00 | 0.00 | 62 | 1024.0 |
| 20260508040501 | 40 | 338 | 2.0 | 5.0 | 0.00 | 0.00 | 0.00 | 62 | 1024.0 |
| 20260508035941 | 40 | 0 | 3.0 | 5.0 | 0.00 | 0.00 | 0.00 | 62 | 1023.9 |
| 20260508034930 | 39 | 344 | 1.0 | 3.0 | 0.00 | 0.00 | 0.00 | 63 | 1023.9 |
| 20260508034435 | 39 | 333 | 2.0 | 4.0 | 0.00 | 0.00 | 0.00 | 63 | 1023.8 |
| 20260508033932 | 38 | 337 | 3.0 | 4.0 | 0.00 | 0.00 | 0.00 | 64 | 1023.7 |
| 20260508033407 | 38 | 344 | 1.0 | 4.0 | 0.00 | 0.00 | 0.00 | 64 | 1023.6 |
| 20260508032915 | 38 | 330 | 2.0 | 4.0 | 0.00 | 0.00 | 0.00 | 65 | 1023.5 |
| 20260508032414 | 38 | 340 | 2.0 | 4.0 | 0.00 | 0.00 | 0.00 | 65 | 1023.5 |
| 20260508031912 | 37 | 348 | 2.0 | 4.0 | 0.00 | 0.00 | 0.00 | 66 | 1023.4 |
| 20260508031410 | 37 | 337 | 1.0 | 4.0 | 0.00 | 0.00 | 0.00 | 66 | 1023.4 |
| 20260508030914 | 37 | 347 | 2.0 | 4.0 | 0.00 | 0.00 | 0.00 | 66 | 1023.4 |
| 20260508030409 | 37 | 348 | 2.0 | 4.0 | 0.00 | 0.00 | 0.00 | 66 | 1023.3 |
| 20260508025912 | 36 | 302 | 2.0 | 4.0 | 0.00 | 0.00 | 0.00 | 66 | 1023.2 |
| 20260508025409 | 36 | 338 | 2.0 | 4.0 | 0.00 | 0.00 | 0.00 | 66 | 1023.2 |
| 20260508024402 | 36 | 340 | 1.0 | 3.0 | 0.00 | 0.00 | 0.00 | 67 | 1023.0 |
| 20260508022904 | 36 | 337 | 2.0 | 3.0 | 0.00 | 0.00 | 0.00 | 67 | 1022.9 |
| 20260508022401 | 36 | 344 | 2.0 | 3.0 | 0.00 | 0.00 | 0.00 | 66 | 1022.8 |
| 20260508021356 | 36 | 341 | 1.0 | 3.0 | 0.00 | 0.00 | 0.00 | 66 | 1022.7 |
| 20260508020856 | 36 | 347 | 2.0 | 3.0 | 0.00 | 0.00 | 0.00 | 65 | 1022.6 |
| 20260508020352 | 36 | 343 | 1.0 | 3.0 | 0.00 | 0.00 | 0.00 | 65 | 1022.6 |
| 20260508015835 | 36 | 354 | 2.0 | 3.0 | 0.00 | 0.00 | 0.00 | 64 | 1022.5 |
| 20260508015336 | 37 | 338 | 2.0 | 3.0 | 0.00 | 0.00 | 0.00 | 64 | 1022.4 |
| 20260508014833 | 37 | 336 | 1.0 | 3.0 | 0.00 | 0.00 | 0.00 | 64 | 1022.4 |
| 20260508014311 | 37 | 345 | 2.0 | 3.0 | 0.00 | 0.00 | 0.00 | 64 | 1022.4 |
| 20260508013811 | 37 | 343 | 2.0 | 3.0 | 0.00 | 0.00 | 0.00 | 64 | 1022.4 |
| 20260508013311 | 37 | 348 | 2.0 | 3.0 | 0.00 | 0.00 | 0.00 | 63 | 1022.3 |
| 20260508012826 | 37 | 324 | 1.0 | 3.0 | 0.00 | 0.00 | 0.00 | 63 | 1022.2 |
| 20260508012311 | 37 | 340 | 2.0 | 5.0 | 0.00 | 0.00 | 0.00 | 63 | 1022.2 |
| 20260508011810 | 37 | 343 | 2.0 | 5.0 | 0.00 | 0.00 | 0.00 | 63 | 1022.1 |